Location: Newark
(36.8292°N, 10.0894°E)
Time: 02:30:21
(UTC+00:00)

Envisat - Visible Passes

Search period start: 09 December 2019 00:00
Search period end: 19 December 2019 00:00
Orbit: 764 x 766 km, 98.1° (Epoch: 08 December)

Date Brightness Start Highest point End Pass type
(mag) Time Alt. Az. Time Alt. Az. Time Alt. Az.
09 Dec 5.2 05:21:31 10° NE 05:25:55 29° E 05:30:17 10° SSE visible
09 Dec 3.7 16:33:51 10° SE 16:38:15 31° ENE 16:42:39 10° N visible
09 Dec 5.0 18:12:56 10° SSW 18:17:12 27° W 18:21:30 10° NW visible
10 Dec 6.2 04:46:50 10° ENE 04:48:50 12° E 04:50:50 10° ESE visible
10 Dec 3.4 17:35:16 10° S 17:40:18 64° W 17:45:21 10° NNW visible
11 Dec 4.0 05:46:32 10° NNE 05:51:31 53° E 05:56:27 10° S visible
11 Dec 3.1 16:58:39 10° SSE 17:03:35 55° ENE 17:08:32 10° N visible
11 Dec 5.9 18:40:04 10° SW 18:42:54 15° W 18:45:45 10° WNW visible
12 Dec 5.6 05:10:35 10° NE 05:14:34 23° E 05:18:31 10° SE visible
12 Dec 4.6 18:01:16 10° SSW 18:05:52 35° W 18:10:30 10° NNW visible
13 Dec 3.0 17:23:56 10° S 17:29:01 83° WSW 17:34:07 10° NNW visible
14 Dec 4.5 05:35:24 10° NNE 05:40:12 41° E 05:44:58 10° SSE visible
14 Dec 3.3 16:47:36 10° SE 16:52:21 43° ENE 16:57:08 10° N visible
14 Dec 5.6 18:27:56 10° SW 18:31:31 19° W 18:35:08 10° NW visible
15 Dec 5.9 04:59:49 10° NE 05:03:12 18° E 05:06:34 10° SE visible
15 Dec 4.1 17:49:42 10° S 17:54:33 45° W 17:59:24 10° NNW visible
16 Dec 2.9 17:12:41 10° SSE 17:17:45 78° ENE 17:22:50 10° N visible
17 Dec 5.0 05:24:20 10° NNE 05:28:52 32° E 05:33:22 10° SSE visible
17 Dec 3.6 16:36:37 10° SE 16:41:08 33° ENE 16:45:40 10° N visible
17 Dec 5.2 18:16:03 10° SSW 18:20:09 25° W 18:24:18 10° NW visible
18 Dec 6.1 04:49:18 10° ENE 04:51:49 14° E 04:54:18 10° ESE visible
18 Dec 3.6 17:38:14 10° S 17:43:14 58° W 17:48:15 10° NNW visible
